Location: Bailleul
(50.3375°N, 2.8513°E)
Time: 05:12:30
(UTC+00:00)

Cosmos 1092 Rocket - Pass Details

Date: 19 April 2021
Orbit: 954 x 995 km, 82.9° (Epoch: 09 May)

Event Time Altitude Azimuth Distance (km) Brightness Sun altitude
Rises 19:21:12 0° 350° (N) 3,702 7.6 -5.5°
Reaches altitude 10° 19:23:45 10° 352° (N) 2,744 6.9 -5.8°
Maximum altitude 19:30:03 79° 80° (E) 996 4.0 -6.7°
Drops below altitude 10° 19:36:14 10° 167° (SSE) 2,696 5.9 -7.6°
Sets 19:38:43 0° 168° (SSE) 3,634 6.6 -8.0°
